[[[{"header":{"parameterUnit":"kt","parameterCategory":2,"dx":1,"dy":1,"la1":30.253999710083008,"la2":30.299108505249023,"lo1":-89.0895004272461,"lo2":-89.04439544677734,"nx":28,"ny":28,"refTime":"2022-09-29T21:00:00:Z","depth":0,"parameterNumber":1,"parameterNumberName":"U-component_of_WINDS"},"data":[-3.8002,-3.8122,-3.8132,-3.8273,-3.8306,-3.8405,-3.8443,-3.8494,-3.8537,-3.8656,-3.8726,-3.8749,-3.8797,-3.8884,-3.8961,-3.897,-3.9003,-3.9037,-3.9042,-3.8878,-3.8856,-3.8836,-3.8809,-3.9043,-3.9043,-3.9212,-3.9214,-3.9215,-3.788,-3.7914,-3.7991,-3.8073,-3.814,-3.8112,-3.8176,-3.8234,-3.8323,-3.8377,-3.8446,-3.8552,-3.8637,-3.8674,-3.8758,-3.8815,-3.8809,-3.8837,-3.8836,-3.8844,-3.8668,-3.8639,-3.8841,-3.8841,-3.8841,-3.8841,-3.8841,-3.8841,-3.766,-3.7731,-3.7787,-3.7871,-3.7915,-3.797,-3.804,-3.8067,-3.8143,-3.8232,-3.8229,-3.833,-3.8387,-3.8494,-3.8532,-3.8612,-3.8582,-3.8618,-3.8628,-3.8638,-3.8648,-3.8407,-3.8626,-3.8625,-3.8625,-3.8624,-3.8624,0,-3.7504,-3.7508,-3.7583,-3.7661,-3.7723,-3.7785,-3.7844,-3.7887,-3.79,-3.7962,-3.8054,-3.8109,-3.8217,-3.8306,-3.8386,-3.842,-3.8402,-3.84,-3.8425,-3.8431,-3.8424,-3.8433,-3.8148,-3.8395,-3.8393,-3.8391,-3.839,-3.8389,-3.7287,-3.7367,-3.7431,-3.7482,-3.7517,-3.76,-3.7651,-3.7656,-3.7711,-3.7785,-3.7847,-3.7935,-3.8006,-3.8152,-3.8184,-3.8265,-3.8258,-3.8351,-3.8271,-3.8271,-3.8264,-3.8261,-3.827,-3.8369,-3.8372,-3.8374,-3.8375,0,-3.7164,-3.7181,-3.731,-3.7365,-3.7381,-3.7466,-3.7514,-3.7585,-3.7603,-3.7704,-3.7728,-3.7758,-3.7848,-3.7865,-3.7972,-3.7978,-3.8121,-3.8109,-3.8101,-3.8101,-3.8189,-3.8182,-3.8465,-3.8504,-3.8257,-3.8259,-3.8261,0,-3.6987,-3.7093,-3.7113,-3.7187,-3.7305,-3.7308,-3.7424,-3.7452,-3.7501,-3.758,-3.756,-3.7635,-3.7645,-3.7723,-3.7732,-3.7851,-3.787,-3.7883,-3.7886,-3.7888,-3.7887,-3.7921,-3.7912,-3.7883,-3.7881,-3.788,-3.7879,0,-3.6797,-3.6931,-3.705,-3.7084,-3.7154,-3.7211,-3.7243,-3.7298,-3.7349,-3.7417,-3.7451,-3.753,-3.7575,-3.7637,-3.7649,-3.7594,-3.7793,-3.772,-3.7808,-3.7808,-3.7855,-3.7853,-3.8095,-3.7877,-3.7877,-3.7876,-3.7876,0,-3.6659,-3.6727,-3.6897,-3.6956,-3.6991,-3.7069,-3.7148,-3.7219,-3.7279,-3.729,-3.7344,-3.7335,-3.7437,-3.7364,-3.7507,-3.7432,-3.7477,-3.7498,-3.7505,-3.7519,-3.7438,-3.7577,-3.7802,-3.7829,-3.7526,-3.7524,-3.7521,0,-3.6438,-3.6613,-3.6618,-3.6779,-3.6863,-3.6836,-3.6923,-3.6977,-3.6999,-3.7074,-3.7098,-3.7184,-3.7132,-3.7162,-3.7229,-3.726,-3.7356,-3.7246,-3.7358,-3.7362,-3.7347,-3.7553,-3.7585,-3.775,-3.7484,-3.7488,-3.7491,0,-3.6269,-3.6354,-3.6383,-3.6422,-3.6493,-3.6563,-3.6662,-3.6748,-3.6798,-3.6859,-3.6945,-3.7064,-3.7031,-3.708,-3.7081,-3.7151,-3.7291,-3.7107,-3.7109,-3.7143,-3.7466,-3.7495,-3.7523,-3.7276,-3.728,-3.7284,-3.7461,0,-3.6063,-3.6153,-3.6229,-3.6316,-3.6372,-3.6474,-3.6492,-3.6549,-3.6544,-3.6566,-3.669,-3.674,-3.6828,-3.6863,-3.6859,-3.7013,-3.6991,-3.6955,-3.6889,-3.7022,-3.7082,-3.7105,-3.6799,-3.6797,-3.6795,-3.6794,0,0,-3.585,-3.5979,-3.5981,-3.6078,-3.6127,-3.6098,-3.6206,-3.6249,-3.6339,-3.6373,-3.6335,-3.6512,-3.6555,-3.6705,-3.6747,-3.6782,-3.6813,-3.6766,-3.6958,-3.6976,-3.6993,-3.7056,-3.708,-3.6791,-3.6791,-3.679,-3.679,0,-3.5779,-3.582,-3.5925,-3.597,-3.6037,-3.6055,-3.608,-3.6142,-3.6161,-3.6282,-3.626,-3.6337,-3.6478,-3.6527,-3.657,-3.6746,-3.6727,-3.6771,-3.6861,-3.6941,-3.6961,-3.6979,-3.7045,-3.7068,-3.6786,-3.6786,-3.6786,0,-3.562,-3.5664,-3.5717,-3.5824,-3.5868,-3.5955,-3.5888,-3.5982,-3.6048,-3.6015,-3.6136,-3.6167,-3.6233,-3.6371,-3.6434,-3.6402,-3.6648,-3.6573,-3.6584,-3.6593,-3.6672,-3.6696,-3.6717,-3.6434,-3.6432,-3.6431,0,0,-3.5557,-3.5639,-3.5691,-3.581,-3.5839,-3.5867,-3.5915,-3.5916,-3.5976,-3.6,-3.604,-3.6099,-3.6182,-3.6236,-3.6314,-3.6462,-3.6478,-3.6529,-3.6546,-3.6559,-3.6575,-3.6658,-3.6682,-3.6426,-3.6426,-3.6426,0,0,-3.5527,-3.5591,-3.5576,-3.5716,-3.5773,-3.5833,-3.5906,-3.5889,-3.5961,-3.5952,-3.5959,-3.5976,-3.6105,-3.6136,-3.6068,-3.6292,-3.6225,-3.6242,-3.6267,-3.6289,-3.6305,-3.6297,-3.6009,0,0,0,0,0,-3.5466,-3.5583,-3.5568,-3.5594,-3.5731,-3.584,-3.5858,-3.5866,-3.5818,-3.5876,-3.5906,-3.5881,-3.6101,-3.604,-3.6067,-3.6145,-3.6363,-3.6374,-3.6385,-3.6452,-3.6474,-3.6493,0,0,0,0,0,0,-3.5476,-3.5509,-3.5565,-3.5629,-3.566,-3.5836,-3.5758,-3.5763,-3.5813,-3.5806,-3.5876,-3.5884,-3.5893,-3.6027,-3.6051,-3.6125,-3.6001,-3.6367,-3.6377,-3.6385,-3.646,-3.6478,-3.6493,0,0,0,0,0,-3.5485,-3.5511,-3.5727,-3.5628,-3.5654,-3.5693,-3.5753,-3.5757,-3.5796,-3.5844,-3.585,-3.5798,-3.5895,-3.5916,-3.6041,-3.6114,-3.5985,-3.5994,-3.6373,-3.6381,-3.6388,-3.6469,0,0,0,0,0,0,-3.5491,-3.5516,-3.5732,-3.5741,-3.5584,-3.5683,-3.5699,-3.5752,-3.5831,-3.5838,-3.5765,-3.5759,-3.5898,-3.5914,-3.593,-3.611,-3.5971,-3.598,-3.5986,-3.6379,-3.6385,-3.639,0,0,0,0,0,0,-3.5502,-3.5523,-3.5737,-3.5682,-3.5684,-3.5674,-3.5688,-3.5796,-3.5832,-3.5747,-3.5745,-3.5761,-3.5874,-3.5913,-3.5925,-3.6093,-3.5961,-3.597,-3.5976,-3.5979,-3.6384,-3.6389,0,0,0,0,0,0,-3.5511,-3.5529,-3.5679,-3.5681,-3.5683,-3.5779,-3.5769,-3.5909,-3.5783,-3.5744,-3.5772,-3.5767,-3.5874,-3.5886,-3.5922,-3.6084,-3.6091,-3.5961,-3.5967,-3.5971,-3.5974,0,0,0,0,0,0,0,-3.5518,-3.5393,-3.5682,-3.5681,-3.5682,-3.5819,-3.5821,-3.5824,-3.5782,-3.5778,-3.5773,-3.5769,-3.5911,-3.5921,-3.593,-3.6078,0,0,-3.596,-3.5964,0,0,0,0,0,0,0,0,-3.5386,-3.5391,-3.5682,-3.5684,-3.5686,-3.582,-3.5821,-3.5823,-3.5781,-3.5778,-3.5774,-3.5771,-3.5914,-3.5921,-3.5929,0,0,0,0,0,0,0,0,0,0,0,0,0,0,0,-3.5683,-3.5684,0,-3.582,-3.5821,-3.5823,-3.5781,-3.5778,-3.5775,-3.5772,-3.5916,-3.5922,-3.5929,0,0,0,0,0,0,0,0,0,0,0,0,0,0,0,0,0,0,0,0,0,0,0,0,0,0,0,0,0,0,0,0,0,0,0,0,0,0,0,0,0,0,0,0,0,0,0,0,0,0,0,0,0,0,0,0,0,0,0,0,0,0,0,0,0,0,0,0,0]}],[{"header":{"parameterUnit":"kt","parameterCategory":2,"dx":1,"dy":1,"la1":30.253999710083008,"la2":30.299108505249023,"lo1":-89.0895004272461,"lo2":-89.04439544677734,"nx":28,"ny":28,"refTime":"2022-09-29T21:00:00:Z","depth":0,"parameterNumber":2,"parameterNumberName":"V-component_of_WINDS"},"data":[-15.4119,-15.4353,-15.4371,-15.4644,-15.4704,-15.4892,-15.4964,-15.5057,-15.5134,-15.5356,-15.5484,-15.552,-15.5599,-15.5752,-15.5889,-15.59,-15.5957,-15.603,-15.603,-15.5697,-15.5652,-15.5609,-15.5557,-15.6042,-15.6042,-15.6374,-15.6377,-15.6379,-15.3877,-15.3942,-15.4091,-15.4247,-15.4374,-15.4316,-15.4432,-15.4541,-15.4708,-15.4804,-15.4931,-15.5125,-15.5277,-15.5331,-15.5478,-15.5583,-15.5561,-15.5622,-15.5614,-15.5627,-15.5272,-15.5217,-15.5637,-15.5637,-15.5637,-15.5637,-15.5637,-15.5637,-15.3442,-15.3581,-15.3685,-15.3847,-15.3928,-15.4031,-15.4164,-15.4207,-15.4349,-15.4509,-15.4496,-15.4683,-15.4777,-15.4959,-15.5021,-15.5164,-15.5098,-15.5167,-15.5185,-15.5203,-15.5222,-15.4746,-15.5189,-15.5188,-15.5187,-15.5186,-15.5185,0,-15.3128,-15.3133,-15.3276,-15.3426,-15.3543,-15.3658,-15.3765,-15.3847,-15.3855,-15.3971,-15.414,-15.4238,-15.443,-15.4587,-15.4726,-15.4776,-15.4721,-15.4716,-15.4763,-15.4775,-15.4768,-15.4776,-15.4197,-15.4702,-15.4698,-15.4695,-15.4693,-15.4691,-15.269,-15.2849,-15.2964,-15.3063,-15.3125,-15.3282,-15.3378,-15.3373,-15.3475,-15.3602,-15.3721,-15.3879,-15.4005,-15.4267,-15.4306,-15.4448,-15.4422,-15.4614,-15.4442,-15.4448,-15.4427,-15.4418,-15.4434,-15.4648,-15.4653,-15.4658,-15.4661,0,-15.2443,-15.2467,-15.2718,-15.2813,-15.2842,-15.3007,-15.3087,-15.3222,-15.3245,-15.3434,-15.3477,-15.3513,-15.3675,-15.3685,-15.3869,-15.3868,-15.4136,-15.4106,-15.4105,-15.41,-15.4274,-15.4258,-15.4834,-15.4909,-15.4405,-15.4409,-15.4413,0,-15.2079,-15.2287,-15.2311,-15.2454,-15.2684,-15.2674,-15.29,-15.2943,-15.3025,-15.3173,-15.3114,-15.3253,-15.3242,-15.3382,-15.3381,-15.36,-15.3634,-15.3647,-15.3644,-15.3653,-15.3652,-15.3704,-15.3681,-15.3629,-15.3627,-15.3624,-15.3622,0,-15.169,-15.1944,-15.2178,-15.2239,-15.2359,-15.2468,-15.2522,-15.2612,-15.2705,-15.2825,-15.2884,-15.3023,-15.3099,-15.3206,-15.3204,-15.3088,-15.3472,-15.3311,-15.3485,-15.3485,-15.3569,-15.3564,-15.4072,-15.3618,-15.3617,-15.3616,-15.3615,0,-15.1399,-15.1527,-15.1861,-15.196,-15.2026,-15.2178,-15.2317,-15.2449,-15.2548,-15.2559,-15.2652,-15.2612,-15.2804,-15.2644,-15.2908,-15.2758,-15.2835,-15.2864,-15.2876,-15.2894,-15.2716,-15.3003,-15.3485,-15.3536,-15.2911,-15.2905,-15.29,0,-15.0949,-15.1291,-15.1286,-15.1601,-15.1761,-15.1686,-15.1853,-15.1943,-15.1971,-15.2107,-15.2134,-15.2288,-15.2171,-15.222,-15.2349,-15.2383,-15.2579,-15.2357,-15.2549,-15.2556,-15.2528,-15.2972,-15.3042,-15.3378,-15.2825,-15.2833,-15.2838,0,-15.0602,-15.0748,-15.0805,-15.0874,-15.0993,-15.1124,-15.1316,-15.1468,-15.156,-15.1664,-15.1824,-15.2038,-15.1959,-15.204,-15.202,-15.2155,-15.2446,-15.205,-15.2052,-15.2123,-15.2786,-15.2853,-15.291,-15.2403,-15.2412,-15.2419,-15.2779,0,-15.0161,-15.0334,-15.0488,-15.0641,-15.0744,-15.094,-15.0954,-15.1059,-15.1033,-15.1057,-15.129,-15.1361,-15.1511,-15.1575,-15.1549,-15.1853,-15.1803,-15.1716,-15.156,-15.1851,-15.1969,-15.2018,-15.1383,-15.1379,-15.1375,-15.1372,0,0,-14.9724,-14.9972,-14.9958,-15.0145,-15.0231,-15.0149,-15.0359,-15.0431,-15.058,-15.064,-15.0554,-15.0867,-15.0928,-15.1208,-15.13,-15.1359,-15.1414,-15.1311,-15.1712,-15.175,-15.1785,-15.1912,-15.1962,-15.1365,-15.1363,-15.1362,-15.1361,0,-14.9566,-14.9637,-14.9846,-14.9922,-15.0034,-15.005,-15.0101,-15.0195,-15.022,-15.0448,-15.0373,-15.0513,-15.0761,-15.0837,-15.0908,-15.1278,-15.1212,-15.1322,-15.152,-15.1673,-15.1716,-15.1754,-15.1888,-15.1936,-15.1351,-15.1352,-15.1352,0,-14.9228,-14.93,-14.9402,-14.9594,-14.9666,-14.9829,-14.9672,-14.985,-14.997,-14.9865,-15.0092,-15.0133,-15.0233,-15.0496,-15.0614,-15.0538,-15.1029,-15.0874,-15.0898,-15.0911,-15.1059,-15.1111,-15.1157,-15.0551,-15.0548,-15.0545,0,0,-14.9089,-14.9249,-14.9322,-14.9561,-14.9612,-14.9638,-14.9724,-14.9707,-14.9802,-14.984,-14.989,-14.9982,-15.0126,-15.0221,-15.0356,-15.0643,-15.0663,-15.0775,-15.0813,-15.0844,-15.0874,-15.103,-15.1081,-15.0535,-15.0534,-15.0534,0,0,-14.9021,-14.9117,-14.9075,-14.9354,-14.9449,-14.9534,-14.9678,-14.9626,-14.975,-14.9728,-14.9701,-14.9725,-14.997,-15.0012,-14.987,-15.03,-15.0147,-15.0181,-15.0265,-15.0313,-15.035,-15.0335,-14.9714,0,0,0,0,0,-14.8866,-14.9106,-14.9066,-14.9115,-14.9355,-14.9557,-14.9587,-14.9573,-14.9466,-14.9581,-14.9615,-14.9538,-14.993,-14.9804,-14.985,-15.0009,-15.0398,-15.0422,-15.0445,-15.0621,-15.0671,-15.0713,0,0,0,0,0,0,-14.8885,-14.8945,-14.906,-14.9156,-14.9209,-14.9548,-14.9363,-14.9366,-14.9454,-14.9436,-14.9534,-14.9541,-14.953,-14.9779,-14.9821,-14.9972,-14.97,-15.0408,-15.0428,-15.0447,-15.0638,-15.0679,-15.0714,0,0,0,0,0,-14.89,-14.8948,-14.9337,-14.9152,-14.9199,-14.9239,-14.9354,-14.9355,-14.9422,-14.9474,-14.9479,-14.9404,-14.9535,-14.9569,-14.9804,-14.9953,-14.967,-14.9686,-15.0421,-15.0437,-15.0452,-15.0658,0,0,0,0,0,0,-14.8911,-14.8949,-14.9345,-14.9359,-14.906,-14.9219,-14.9244,-14.9346,-14.9453,-14.9461,-14.9342,-14.9327,-14.9542,-14.9567,-14.9593,-14.9948,-14.9647,-14.9663,-14.9673,-15.0433,-15.0446,-15.0457,0,0,0,0,0,0,-14.8923,-14.8961,-14.9352,-14.9238,-14.9238,-14.9202,-14.9224,-14.9419,-14.9456,-14.9314,-14.9305,-14.9334,-14.9499,-14.9566,-14.9586,-14.9892,-14.9628,-14.9644,-14.9654,-14.9661,-15.0444,-15.0454,0,0,0,0,0,0,-14.8938,-14.8971,-14.9234,-14.9235,-14.9234,-14.9385,-14.9373,-14.9618,-14.9362,-14.9311,-14.9339,-14.9328,-14.9501,-14.9521,-14.9583,-14.988,-14.9889,-14.9629,-14.9639,-14.9647,-14.9652,0,0,0,0,0,0,0,-14.8951,-14.8736,-14.9266,-14.9232,-14.9231,-14.9484,-14.9488,-14.9492,-14.936,-14.9351,-14.9341,-14.9332,-14.9541,-14.9558,-14.9575,-14.987,0,0,-14.9627,-14.9635,0,0,0,0,0,0,0,0,-14.8722,-14.8733,-14.9266,-14.9269,-14.9272,-14.9485,-14.9488,-14.9491,-14.9358,-14.9351,-14.9343,-14.9336,-14.9546,-14.9559,-14.9573,0,0,0,0,0,0,0,0,0,0,0,0,0,0,0,-14.9267,-14.9269,0,-14.9485,-14.9488,-14.949,-14.9357,-14.9351,-14.9345,-14.9339,-14.9549,-14.9561,-14.9572,0,0,0,0,0,0,0,0,0,0,0,0,0,0,0,0,0,0,0,0,0,0,0,0,0,0,0,0,0,0,0,0,0,0,0,0,0,0,0,0,0,0,0,0,0,0,0,0,0,0,0,0,0,0,0,0,0,0,0,0,0,0,0,0,0,0,0,0,0]}]]]